Regional Weather Roundup
Issued by NWS Sioux Falls, SD

Home | Current Version | Previous Version | Graphics & Text | Print | Product List | Glossary On
Versions: 1 2 3 4 5 6 7 8 9 10 11 12 13 14 15 16 17 18 19 20 21 22 23 24 25 26 27 28 29 30 31 32 33 34 35 36 37 38 39 40 41 42 43 44 45 46 47 48 49 50
000
ASUS43 KFSD 221102
RWRFSD

WEATHER ROUNDUP FOR SE SOUTH DAKOTA/SW MINNESOTA/NW IOWA
NATIONAL WEATHER SERVICE SIOUX FALLS SD
600 AM CDT TUE APR 22 2014

NOTE: "FAIR" INDICATES FEW OR NO CLOUDS BELOW 12,000 FEET WITH NO
SIGNIFICANT WEATHER AND OR OBSTRUCTIONS TO VISIBILITY.


SDZ038>040-050-052>070-221200-
SOUTHEAST SOUTH DAKOTA

CITY           SKY/WX    TMP DP  RH WIND       PRES   REMARKS
CHAMBERLAIN      N/A     40  31  70 SE6       30.11S
HURON          CLEAR     34  29  82 SE3       30.13F
MADISON        FAIR      32  32 100 CALM      30.14S
MITCHELL       CLEAR     34  31  88 SE5       30.14F WCI  30
SIOUX FALLS    CLEAR     30  26  85 CALM      30.15S
WINNER         FAIR      41  29  62 S7        30.08F
YANKTON        CLEAR     37  28  70 SW3       30.16S
$$

MNZ071-072-080-081-089-090-097-098-221200-
SOUTHWEST MINNESOTA

CITY           SKY/WX    TMP DP  RH WIND       PRES   REMARKS
FAIRMONT       CLEAR     37  28  70 NW6       30.14S
JACKSON        CLEAR     36  28  75 NW7       30.14S
LUVERNE        CLEAR     32  28  86 CALM      30.16S
MARSHALL       CLEAR     34  25  69 W7        30.14S WCI  28
MONTEVIDEO     CLEAR     34  28  80 NW5       30.15F WCI  30
PIPESTONE      CLEAR     34  27  75 CALM      30.14R
REDWOOD FALLS  CLEAR     34  29  82 NW6       30.14S WCI  29
TRACY          CLEAR     36  29  75 CALM      30.15S
WINDOM         CLEAR     30  27  86 W3        30.15R
WORTHINGTON    CLEAR     30  21  69 CALM      30.16S
$$

IAZ001>003-012>014-020>022-031-032-NEZ013-014-SDZ071-221200-
NORTHWEST IOWA

CITY           SKY/WX    TMP DP  RH WIND       PRES   REMARKS
DENISON        CLEAR     36  32  87 CALM      30.14S
ESTHERVILLE    CLEAR     32  29  88 NW9       30.14R WCI  24
SIOUX CITY     CLEAR     33  28  81 W3        30.16F
SPENCER        CLEAR     27  24  89 NW8       30.14F WCI  19
STORM LAKE     CLEAR     37  30  75 N7        30.14F
$$

ABBREVIATIONS USED IN REMARKS
   TC - TEMPERATURE IN CELSIUS
  WCI - WIND CHILL INDEX
   HX - HEAT INDEX
  VSB - VISIBILITY




USA.gov is the U.S. government's official web portal to all federal, state and local government web resources and services.